Back to catalog

STARLINK-34127

AliveCommunicationsVLEO
NORAD 63810·PAYLOAD·🇺🇸 United States

Launched May 4, 2025 from Cape Canaveral Space Force Station

Loading…

Next Passes (next 24 hours)

TLE

FreshSource: CelesTrak SupGP

Epoch: Sep 14, 2026, 22:46 UTC

1 63810C 25092G   26257.94909722 -.00037564  00000+0 -13603-2 0  2578
2 63810  43.0010 183.5889 0001129 264.6125 352.9415 15.27602850    15

Track STARLINK-34127 in real time with AllMySat

Download on the App Store